Regional Weather Roundup
Issued by NWS Green Bay, WI

Home | Current Version | Previous Version | Graphics & Text | Print | Product List | Glossary Off
Versions: 1 2 3 4 5 6 7 8 9 10 11 12 13 14 15 16 17 18 19 20 21 22 23 24 25 26 27 28 29 30 31 32 33 34 35 36 37 38 39 40 41 42 43 44 45 46 47 48 49 50

000
ASUS43 KGRB 051100
RWRGRB

NORTH-CENTRAL AND NORTHEAST WISCONSIN REGIONAL WEATHER ROUNDUP
NATIONAL WEATHER SERVICE GREEN BAY WI
600 AM CDT WED AUG 05 2015

WIZ005-009-010>012-018-019-051200-
NORTH CENTRAL WISCONSIN

CITY           SKY/WX    TMP DP  RH WIND       PRES   REMARKS
IRONWOOD       CLEAR     43  43 100 CALM      30.09R
MANITOWISH WTR NOT AVBL
ARBOR VITAE    NOT AVBL
EAGLE RIVER    NOT AVBL
LAND O LAKES   NOT AVBL
RHINELANDER    CLEAR     45  43  93 CALM      30.11S FOG
PHILLIPS       NOT AVBL
ANTIGO         NOT AVBL
TOMAHAWK       NOT AVBL
MERRILL        NOT AVBL
$$

WIZ013-073-051200-
NORTHEAST WISCONSIN

CITY           SKY/WX    TMP DP  RH WIND       PRES   REMARKS
IRON MOUNTAIN  CLEAR     45  42  89 CALM      30.09S
MARINETTE      CLOUDY    54  48  82 N6        30.08R
$$

WIZ017-030-035>037-045-051200-
CENTRAL WISCONSIN

CITY           SKY/WX    TMP DP  RH WIND       PRES   REMARKS
MEDFORD        NOT AVBL
WAUSAU         MOCLDY    58  53  84 CALM      30.07R
MOSINEE        MOCLDY    55  55 100 CALM      30.09R
MARSHFIELD     PTCLDY    56  51  84 E6        30.07S
WISC RAPIDS    CLEAR     55  52  89 CALM      30.07S
STEVENS POINT  NOT AVBL
WAUPACA        NOT AVBL
SHAWANO        NOT AVBL
CLINTONVILLE   CLOUDY    55  54  94 NE3       30.07R
$$

WIZ038-039-048-051-051200-
FOX VALLEY

CITY           SKY/WX    TMP DP  RH WIND       PRES   REMARKS
NWS GREEN BAY  MOCLDY    59  57  93 N6        30.07R
APPLETON       PTCLDY    57  57 100 CALM      30.07R
OSHKOSH        PTCLDY    61  57  87 E5        30.05R
FOND DU LAC    CLEAR     54  53  97 CALM      30.06R
$$

WIZ022-050-052-051200-
EAST CENTRAL WISCONSIN

CITY           SKY/WX    TMP DP  RH WIND       PRES   REMARKS
STURGEON BAY   PTCLDY    57  50  77 NE6       30.09S
MANITOWOC      NOT AVBL
SHEBOYGAN      CLEAR     58  56  93 NE6       30.05R
$$

LMZ563-521-522-541>543-051200-
LAKESHORE

STATION/POSITION TIME  TEMP    WIND        PRES    VSBY  WAVE
                       AIR SEA DIR/SP/G                  HT/PER
                 (UTC) (F)     (DEG/KT/KT) (MB)    (MI)  (FT/S)
SHEBOYGAN LKSHOR 1000   62     350/  9/  9 1017.4R
KEWAUNEE LKSHORE 1000   60      20/  4/  6 1017.3R
ALGOMA MARINA    1042           10/  5/  7   N/A
NORTHPORT PIER   1000   62     330/  9/ 12 1018.3R
N MID LAKE BUOY  0950   61 68  310/ 12/ 14 1017.7R         1/ 3
SISTER BAY LKSHO 1018   58      50/  4/  7   N/A
CHAMBERS ISLAND  1000   62     340/  7/  9 1018.3R
MENOMINEE LKSHOR 1000   58     340/  7/  8 1018.9R
$$


USA.gov is the U.S. government's official web portal to all federal, state and local government web resources and services.